Location: Grand Mazuras
(45.9128°N, 1.7636°E)
Time: 03:06:44
(UTC+00:00)

USA 281 - Pass Details

Date: 18 April 2021
Orbit: 1078 x 1081 km, 106.0° (Epoch: 07 May)

Event Time Altitude Azimuth Distance (km) Brightness Sun altitude
Exits shadow 23:33:04 50° 71° (ENE) 1,351 3.7 -32.8°
Maximum altitude 23:33:33 51° 57° (ENE) 1,336 3.7 -32.8°
Drops below altitude 10° 23:39:52 10° 344° (NNW) 2,929 6.3 -32.8°
Sets 23:42:27 0° 339° (NNW) 3,889 7.1 -32.9°
